TimeEDT,TemperatureF,Dew PointF,Humidity,Sea Level PressureIn,VisibilityMPH,Wind Direction,Wind SpeedMPH,Gust SpeedMPH,PrecipitationIn,Events,Conditions,WindDirDegrees,DateUTC
12:52 AM,68.0,62.1,81,30.11,10.0,South,3.5,-,N/A,,Partly Cloudy,170,2013-06-16 04:52:00
1:52 AM,68.0,61.0,78,30.11,10.0,South,9.2,-,N/A,,Partly Cloudy,190,2013-06-16 05:52:00
2:52 AM,66.9,62.1,84,30.10,10.0,South,6.9,-,N/A,,Clear,190,2013-06-16 06:52:00
3:52 AM,66.9,61.0,81,30.09,10.0,South,8.1,-,N/A,,Clear,190,2013-06-16 07:52:00
4:52 AM,66.9,60.1,79,30.11,10.0,SW,5.8,-,N/A,,Clear,220,2013-06-16 08:52:00
5:52 AM,66.0,59.0,78,30.12,10.0,SW,4.6,-,N/A,,Scattered Clouds,220,2013-06-16 09:52:00
6:52 AM,66.0,60.1,81,30.14,10.0,SW,3.5,-,N/A,,Scattered Clouds,220,2013-06-16 10:52:00
7:52 AM,69.1,62.1,78,30.14,10.0,SW,8.1,-,N/A,,Scattered Clouds,220,2013-06-16 11:52:00
8:52 AM,72.0,64.0,76,30.16,10.0,WSW,9.2,-,N/A,,Scattered Clouds,240,2013-06-16 12:52:00
9:52 AM,75.9,66.9,74,30.14,10.0,WSW,9.2,-,N/A,,Scattered Clouds,240,2013-06-16 13:52:00
10:52 AM,78.1,66.9,68,30.13,10.0,SW,10.4,-,N/A,,Partly Cloudy,220,2013-06-16 14:52:00
11:52 AM,81.0,66.9,62,30.12,10.0,SSW,11.5,-,N/A,,Scattered Clouds,210,2013-06-16 15:52:00
12:52 PM,82.0,66.0,58,30.09,10.0,SSW,12.7,18.4,N/A,,Scattered Clouds,210,2013-06-16 16:52:00
1:52 PM,82.0,66.0,58,30.08,10.0,SSW,11.5,-,N/A,,Mostly Cloudy,200,2013-06-16 17:52:00
2:52 PM,84.9,66.0,53,30.06,10.0,SW,9.2,-,N/A,,Mostly Cloudy,230,2013-06-16 18:52:00
3:52 PM,84.0,64.9,53,30.05,10.0,SSW,11.5,-,N/A,,Mostly Cloudy,210,2013-06-16 19:52:00
4:52 PM,84.9,64.9,51,30.04,10.0,SW,10.4,-,N/A,,Mostly Cloudy,230,2013-06-16 20:52:00
5:52 PM,84.0,64.9,53,30.04,10.0,SSW,8.1,-,N/A,,Mostly Cloudy,200,2013-06-16 21:52:00
6:52 PM,82.9,64.9,54,30.03,10.0,SSW,6.9,-,N/A,,Mostly Cloudy,210,2013-06-16 22:52:00
7:52 PM,80.1,64.9,60,30.02,10.0,SSW,5.8,18.4,N/A,,Mostly Cloudy,200,2013-06-16 23:52:00
8:52 PM,77.0,64.9,66,30.02,10.0,South,5.8,-,N/A,,Mostly Cloudy,190,2013-06-17 00:52:00
9:52 PM,75.0,66.0,73,30.03,10.0,South,4.6,-,N/A,,Scattered Clouds,190,2013-06-17 01:52:00
10:52 PM,75.0,66.9,76,30.05,10.0,South,5.8,-,N/A,,Scattered Clouds,190,2013-06-17 02:52:00
11:52 PM,73.0,66.9,81,30.05,10.0,South,6.9,-,N/A,,Mostly Cloudy,170,2013-06-17 03:52:00